[[{"header":{"parameterUnit":"m.s-1","parameterCategory":2,"la1":30.2991,"la2":30.254,"lo1":-89.0895,"lo2":-89.0444,"dy":0.0017,"dx":0.0017,"nx":28,"ny":28,"refTime":"2025-11-19T03:00:00:Z","depth":"0","parameterNumber":2,"parameterNumberName":"U-component_of_CURRENTS"},"data":[0,0,0,0,0,0,0,0,0,0,0,0,0,0,0,0,0,0,0,0,0,0,0,0,0,0,0,0,0,0,0,0,0,0,0,0,0,0,0,0,0,0,0,0,0,0,0,0,0,0,0,0,0,0,0,0,0,0,-0.3063,-0.3064,0,-0.3114,-0.3114,-0.3114,-0.3086,-0.3085,-0.3083,-0.3082,-0.3101,-0.3103,-0.3104,0,0,0,0,0,0,0,0,0,0,0,0,0,-0.295,-0.2952,-0.3063,-0.3064,-0.3064,-0.3114,-0.3114,-0.3115,-0.3086,-0.3085,-0.3083,-0.3082,-0.3101,-0.3103,-0.3104,0,0,0,0,0,0,0,0,0,0,0,0,0,-0.2997,-0.2952,-0.3063,-0.3058,-0.3058,-0.3113,-0.3114,-0.3115,-0.3086,-0.3084,-0.3083,-0.3081,-0.31,-0.3102,-0.3105,-0.3156,0,0,-0.3112,-0.3113,0,0,0,0,0,0,0,0,-0.2995,-0.3001,-0.3058,-0.3058,-0.3059,-0.3093,-0.3081,-0.3128,-0.3087,-0.3073,-0.3082,-0.308,-0.3098,-0.3101,-0.3112,-0.3157,-0.3158,-0.3112,-0.3114,-0.3115,-0.3116,0,0,0,0,0,0,0,-0.2991,-0.2999,-0.3081,-0.3059,-0.3059,-0.3056,-0.3061,-0.309,-0.3093,-0.3074,-0.3073,-0.3083,-0.3098,-0.311,-0.3112,-0.3158,-0.3112,-0.3115,-0.3116,-0.3117,-0.317,-0.317,0,0,0,0,0,0,-0.2992,-0.2996,-0.3079,-0.3082,-0.3024,-0.306,-0.3065,-0.3082,-0.3093,-0.3094,-0.3084,-0.3081,-0.3106,-0.3109,-0.3112,-0.3123,-0.3115,-0.3117,-0.3119,-0.317,-0.317,-0.317,0,0,0,0,0,0,-0.2989,-0.2999,-0.3077,-0.3041,-0.3051,-0.3064,-0.3084,-0.3084,-0.309,-0.3102,-0.3101,-0.3088,-0.3105,-0.3109,-0.3124,-0.3125,-0.3118,-0.3121,-0.317,-0.317,-0.317,-0.3176,0,0,0,0,0,0,-0.2986,-0.2998,-0.3006,-0.3042,-0.3053,-0.3102,-0.3086,-0.3087,-0.31,-0.3096,-0.3106,-0.3105,-0.3104,-0.312,-0.3126,-0.3128,-0.3122,-0.317,-0.317,-0.317,-0.3176,-0.3177,-0.3177,0,0,0,0,0,-0.2982,-0.2997,-0.3006,-0.3016,-0.3066,-0.3103,-0.3109,-0.3109,-0.3102,-0.3107,-0.3106,-0.3105,-0.3123,-0.3123,-0.313,-0.3132,-0.317,-0.317,-0.317,-0.3176,-0.3176,-0.3177,0,0,0,0,0,0,-0.2949,-0.2997,-0.3007,-0.3036,-0.3066,-0.3099,-0.3104,-0.3115,-0.3122,-0.3114,-0.3118,-0.3119,-0.3128,-0.3134,-0.3133,-0.3145,-0.3142,-0.3143,-0.3144,-0.3145,-0.3145,-0.3135,-0.3125,0,0,0,0,0,-0.295,-0.297,-0.3018,-0.3037,-0.3054,-0.3083,-0.3097,-0.3105,-0.3122,-0.3122,-0.313,-0.3132,-0.3138,-0.3142,-0.315,-0.3172,-0.3155,-0.3173,-0.3173,-0.3173,-0.3168,-0.3148,-0.3146,-0.317,-0.317,-0.317,0,0,-0.294,-0.297,-0.298,-0.3031,-0.3051,-0.308,-0.3085,-0.311,-0.3125,-0.3126,-0.3138,-0.3141,-0.3144,-0.3153,-0.3158,-0.3156,-0.3155,-0.3173,-0.3173,-0.3168,-0.3147,-0.3145,-0.3143,-0.3169,-0.3169,-0.3169,0,0,-0.2933,-0.2961,-0.2977,-0.3008,-0.305,-0.3074,-0.3083,-0.3123,-0.3126,-0.3153,-0.3144,-0.3144,-0.3169,-0.316,-0.3161,-0.3173,-0.3159,-0.3176,-0.3173,-0.3153,-0.3151,-0.3148,-0.3114,-0.3109,-0.3176,-0.3176,-0.3176,0,-0.2917,-0.2951,-0.2985,-0.3014,-0.3036,-0.3071,-0.3096,-0.3116,-0.3151,-0.3156,-0.3151,-0.3163,-0.3167,-0.3167,-0.3163,-0.3173,-0.3155,-0.3173,-0.3153,-0.315,-0.3148,-0.3113,-0.3107,-0.3176,-0.3176,-0.3176,-0.3176,0,-0.2928,-0.2957,-0.2969,-0.3016,-0.3044,-0.3071,-0.3113,-0.3133,-0.3145,-0.3162,-0.3167,-0.3167,-0.3169,-0.317,-0.3172,-0.316,-0.3149,-0.3157,-0.3152,-0.3146,-0.311,-0.3103,-0.3176,-0.3176,-0.3176,-0.3176,0,0,-0.2885,-0.2962,-0.2963,-0.2986,-0.3049,-0.3071,-0.3104,-0.314,-0.3153,-0.3169,-0.3176,-0.3175,-0.317,-0.317,-0.3168,-0.3151,-0.3117,-0.3147,-0.3146,-0.3112,-0.306,-0.2974,-0.2958,-0.3123,-0.3122,-0.3122,-0.3038,0,-0.2879,-0.2925,-0.2969,-0.3004,-0.3031,-0.3079,-0.3107,-0.3141,-0.3164,-0.3181,-0.3175,-0.318,-0.3173,-0.3171,-0.3152,-0.3143,-0.3102,-0.3138,-0.3072,-0.3069,-0.2992,-0.2949,-0.2841,-0.2751,-0.3032,-0.3031,-0.303,0,-0.2867,-0.2904,-0.2939,-0.3002,-0.3017,-0.3042,-0.3086,-0.312,-0.3157,-0.3174,-0.3177,-0.3183,-0.3171,-0.3159,-0.3111,-0.3137,-0.3087,-0.3065,-0.3061,-0.2973,-0.2971,-0.2804,-0.2728,-0.2705,-0.302,-0.3021,-0.3021,0,-0.2804,-0.2875,-0.2898,-0.2921,-0.3001,-0.3016,-0.3053,-0.3103,-0.3127,-0.3164,-0.3176,-0.3174,-0.3163,-0.3125,-0.3084,-0.3098,-0.3018,-0.3034,-0.2895,-0.2889,-0.2778,-0.2762,-0.2668,-0.2959,-0.2959,-0.2959,-0.2959,0,-0.2774,-0.2787,-0.2868,-0.2879,-0.2899,-0.2973,-0.2995,-0.3037,-0.3093,-0.311,-0.3156,-0.3154,-0.3153,-0.3118,-0.3077,-0.2962,-0.3005,-0.2872,-0.2854,-0.2775,-0.2761,-0.2721,-0.2751,-0.2956,-0.2956,-0.2957,-0.2958,0,-0.2687,-0.2747,-0.2772,-0.2849,-0.2867,-0.2876,-0.2951,-0.2971,-0.304,-0.3064,-0.3074,-0.3126,-0.3082,-0.3054,-0.299,-0.2931,-0.2792,-0.2787,-0.2687,-0.2657,-0.2502,-0.2537,-0.242,-0.2353,-0.2621,-0.2618,-0.2616,0,-0.2642,-0.2648,-0.2718,-0.2726,-0.2754,-0.279,-0.2814,-0.2914,-0.2946,-0.3034,-0.3034,-0.3024,-0.2974,-0.286,-0.277,-0.2651,-0.2657,-0.2484,-0.2481,-0.2452,-0.2479,-0.2512,-0.2467,-0.2337,-0.2333,-0.2329,-0.2326,0,-0.2541,-0.2566,-0.2586,-0.2609,-0.2631,-0.2663,-0.2714,-0.2736,-0.2852,-0.2875,-0.2888,-0.2857,-0.277,-0.2613,-0.2482,-0.2407,-0.2429,-0.2403,-0.2401,-0.2256,-0.2259,-0.2199,-0.2441,-0.2294,-0.2297,-0.2299,-0.2301,-0.2302,-0.2439,-0.2429,-0.2455,-0.2459,-0.249,-0.2501,-0.248,-0.2557,-0.2573,-0.2584,-0.2673,-0.2591,-0.2508,-0.2303,-0.2226,-0.2076,-0.2153,-0.2019,-0.2065,-0.2102,-0.2025,-0.2183,-0.2005,-0.2006,-0.2007,-0.2009,-0.201,0,-0.2299,-0.23,-0.2304,-0.2306,-0.2278,-0.2346,-0.2377,-0.2334,-0.2298,-0.2353,-0.2327,-0.2255,-0.2085,-0.2028,-0.1884,-0.1782,-0.1752,-0.1753,-0.1788,-0.1757,-0.1901,-0.1876,-0.1628,-0.1628,-0.1628,-0.1628,-0.1628,-0.1628,-0.2222,-0.2169,-0.2175,-0.2077,-0.2078,-0.1989,-0.1969,-0.1934,-0.1937,-0.1874,-0.187,-0.1903,-0.1867,-0.1926,-0.1762,-0.1668,-0.1639,-0.1581,-0.162,-0.1753,-0.1783,-0.1811,-0.1793,-0.1531,-0.1531,-0.1409,-0.1408,-0.1408]},{"header":{"parameterUnit":"m.s-1","parameterCategory":2,"la1":30.2991,"la2":30.254,"lo1":-89.0895,"lo2":-89.0444,"dy":0.0017,"dx":0.0017,"nx":28,"ny":28,"refTime":"2025-11-19T03:00:00:Z","depth":"0","parameterNumber":3,"parameterNumberName":"V-component_of_CURRENTS"},"data":[0,0,0,0,0,0,0,0,0,0,0,0,0,0,0,0,0,0,0,0,0,0,0,0,0,0,0,0,0,0,0,0,0,0,0,0,0,0,0,0,0,0,0,0,0,0,0,0,0,0,0,0,0,0,0,0,0,0,-0.0322,-0.0321,0,-0.0223,-0.0222,-0.0221,-0.0145,-0.0144,-0.0143,-0.0143,0.001,0.0013,0.0017,0,0,0,0,0,0,0,0,0,0,0,0,0,-0.0395,-0.0394,-0.0322,-0.0321,-0.032,-0.0223,-0.0222,-0.022,-0.0145,-0.0144,-0.0143,-0.0143,0.0009,0.0013,0.0017,0,0,0,0,0,0,0,0,0,0,0,0,0,-0.0335,-0.0394,-0.0322,-0.0271,-0.0266,-0.0224,-0.0222,-0.022,-0.0145,-0.0144,-0.0143,-0.0142,0.0007,0.0013,0.0018,0.0032,0,0,0.0034,0.0036,0,0,0,0,0,0,0,0,-0.0339,-0.0333,-0.028,-0.0275,-0.0269,-0.0196,-0.0191,-0.0133,-0.0145,-0.019,-0.0143,-0.0142,-0.0056,-0.0045,-0.0027,0.0039,0.0046,0.0034,0.0037,0.004,0.0041,0,0,0,0,0,0,0,-0.0343,-0.0336,-0.0282,-0.0279,-0.0272,-0.0236,-0.0227,-0.018,-0.0127,-0.0186,-0.018,-0.0171,-0.0052,-0.0033,-0.0023,0.0048,0.0034,0.0039,0.0042,0.0044,0.0148,0.0147,0,0,0,0,0,0,-0.0361,-0.034,-0.0285,-0.0279,-0.0304,-0.0236,-0.0226,-0.022,-0.0128,-0.0114,-0.0172,-0.0168,-0.0042,-0.0029,-0.0017,0.0009,0.004,0.0045,0.0048,0.0148,0.0147,0.0147,0,0,0,0,0,0,-0.0363,-0.0358,-0.0289,-0.0308,-0.0297,-0.0236,-0.023,-0.0218,-0.0198,-0.0119,-0.0104,-0.0164,-0.0041,-0.0025,0.0018,0.0016,0.0047,0.0052,0.0148,0.0148,0.0147,0.0061,0,0,0,0,0,0,-0.0366,-0.0359,-0.0364,-0.031,-0.0297,-0.0273,-0.023,-0.0217,-0.0194,-0.0188,-0.0107,-0.0092,-0.0039,0.001,0.0023,0.0024,0.0056,0.0149,0.0148,0.0147,0.0064,0.0057,0.0051,0,0,0,0,0,-0.0369,-0.0383,-0.0365,-0.0358,-0.0304,-0.0274,-0.0264,-0.0217,-0.0195,-0.0194,-0.0139,-0.0094,0.0015,0.0013,0.003,0.0031,0.0149,0.0148,0.0147,0.0067,0.0059,0.0051,0,0,0,0,0,0,-0.0418,-0.0375,-0.0354,-0.0354,-0.032,-0.0262,-0.0258,-0.0225,-0.0182,-0.0175,-0.01,-0.0081,-0.0045,0.0002,-0.0002,0.0058,0.009,0.0092,0.0023,0.0016,0.001,-0.0006,0.006,0,0,0,0,0,-0.0433,-0.0431,-0.0382,-0.0383,-0.0371,-0.0316,-0.0299,-0.0267,-0.0221,-0.0201,-0.0145,-0.0086,-0.0037,-0.0005,0.0042,0.0075,0.013,0.0087,0.008,0.0075,0.0072,0.0139,0.0138,0.0144,0.0144,0.0144,0,0,-0.0451,-0.0429,-0.0426,-0.0394,-0.0363,-0.0356,-0.0303,-0.0285,-0.0274,-0.0191,-0.0163,-0.0109,-0.0036,-0.0,0.0021,0.0041,0.0104,0.0073,0.0068,0.0069,0.0138,0.0137,0.0137,0.0143,0.0143,0.0144,0,0,-0.0495,-0.047,-0.0484,-0.0462,-0.0427,-0.0391,-0.0391,-0.0337,-0.0309,-0.0276,-0.0215,-0.0165,-0.0093,-0.0038,-0.0001,-0.0014,0.0062,-0.0,-0.0035,0.0028,0.0028,0.0029,0.0104,0.0113,0.0003,0.0003,0.0003,0,-0.052,-0.0528,-0.0484,-0.0492,-0.048,-0.0414,-0.0425,-0.0388,-0.0327,-0.0302,-0.028,-0.0167,-0.0109,-0.0051,-0.0057,-0.0027,0.0023,-0.0014,0.0019,0.0021,0.0024,0.0101,0.0111,-0.0001,-0.0001,-0.0,0.0,0,-0.0571,-0.0576,-0.0584,-0.057,-0.0552,-0.0551,-0.0496,-0.0472,-0.0428,-0.0381,-0.032,-0.0239,-0.0166,-0.0144,-0.0103,-0.0058,-0.0022,-0.0003,0.0036,0.0018,0.0101,0.0113,-0.0007,-0.0006,-0.0005,-0.0004,0,0,-0.0626,-0.0623,-0.0624,-0.0632,-0.0594,-0.0584,-0.0566,-0.0522,-0.05,-0.0434,-0.0394,-0.0313,-0.0256,-0.0212,-0.0146,-0.0092,-0.0032,-0.005,-0.0044,0.002,0.0118,0.0175,0.0194,-0.001,-0.0009,-0.0008,0.0172,0,-0.0678,-0.0722,-0.0695,-0.0721,-0.0737,-0.0673,-0.0661,-0.061,-0.0546,-0.049,-0.0393,-0.0335,-0.0284,-0.0247,-0.0185,-0.0068,-0.0006,-0.0082,0.0131,0.0138,0.0186,0.0208,0.0244,0.041,0.0185,0.0187,0.0188,0,-0.0733,-0.0756,-0.0802,-0.0799,-0.0797,-0.0797,-0.0751,-0.0727,-0.0628,-0.0577,-0.0491,-0.0407,-0.0303,-0.0269,-0.0074,-0.0125,-0.0017,0.0071,0.0081,0.0172,0.0217,0.0392,0.0441,0.0585,0.0208,0.0206,0.0205,0,-0.08,-0.0824,-0.0866,-0.0867,-0.0853,-0.0853,-0.0833,-0.0757,-0.0727,-0.0625,-0.0584,-0.0447,-0.0362,-0.0223,-0.0029,-0.0053,0.0191,0.0188,0.0345,0.0351,0.0445,0.0457,0.0655,0.0314,0.0314,0.0313,0.0313,0,-0.0867,-0.0895,-0.0903,-0.0927,-0.0963,-0.0922,-0.0923,-0.0878,-0.08,-0.0752,-0.0634,-0.0552,-0.035,-0.018,-0.0029,0.0216,0.0204,0.0351,0.0403,0.0417,0.0423,0.0603,0.0649,0.032,0.0318,0.0317,0.0316,0,-0.0932,-0.0939,-0.0987,-0.0996,-0.1,-0.1023,-0.0997,-0.0986,-0.0905,-0.0835,-0.0806,-0.0612,-0.0381,-0.0162,0.0102,0.0233,0.0549,0.0527,0.0538,0.0586,0.0835,0.0874,0.1132,0.1226,0.072,0.0723,0.0725,0,-0.0969,-0.1006,-0.1047,-0.108,-0.1088,-0.1108,-0.1117,-0.1052,-0.1024,-0.0858,-0.0823,-0.0589,-0.0391,0.0025,0.0295,0.0594,0.0692,0.0786,0.0739,0.0872,0.0954,0.0976,0.1036,0.084,0.0843,0.0845,0.0847,0,-0.1035,-0.1049,-0.1088,-0.1164,-0.1194,-0.1218,-0.1216,-0.121,-0.1103,-0.1004,-0.0815,-0.064,-0.0226,0.0147,0.0525,0.0697,0.0896,0.0842,0.0986,0.1072,0.1107,0.1213,0.0703,0.0868,0.0866,0.0865,0.0864,0.0863,-0.1069,-0.1119,-0.1172,-0.1237,-0.1277,-0.1307,-0.131,-0.1259,-0.1181,-0.0989,-0.0816,-0.0496,0.0006,0.0555,0.075,0.1143,0.1093,0.1247,0.1289,0.1304,0.1377,0.0913,0.1123,0.1122,0.1122,0.1121,0.1121,0,-0.1108,-0.1164,-0.1238,-0.1308,-0.1358,-0.1358,-0.1353,-0.1301,-0.1181,-0.0952,-0.0716,-0.0116,0.0373,0.0813,0.1355,0.1567,0.1604,0.1675,0.1715,0.1759,0.1371,0.1356,0.1618,0.1618,0.1617,0.1617,0.1617,0.1617,-0.1128,-0.1209,-0.1253,-0.1349,-0.1394,-0.1413,-0.1399,-0.1275,-0.1101,-0.0695,-0.0324,-0.0017,0.0601,0.1426,0.1912,0.1962,0.2131,0.213,0.2219,0.1937,0.19,0.1864,0.1862,0.2226,0.2227,0.2595,0.2599,0.2602]}],[{"header":{"parameterUnit":"m.s-1","parameterCategory":2,"la1":30.2991,"la2":30.254,"lo1":-89.0895,"lo2":-89.0444,"dy":0.0017,"dx":0.0017,"nx":28,"ny":28,"refTime":"2025-11-19T03:00:00:Z","depth":"2","parameterNumber":2,"parameterNumberName":"U-component_of_CURRENTS"},"data":[0,0,0,0,0,0,0,0,0,0,0,0,0,0,0,0,0,0,0,0,0,0,0,0,0,0,0,0,0,0,0,0,0,0,0,0,0,0,0,0,0,0,0,0,0,0,0,0,0,0,0,0,0,0,0,0,0,0,-0.2645,-0.2646,0,-0.27,-0.27,-0.27,-0.2688,-0.2687,-0.2686,-0.2685,-0.2716,-0.2717,-0.2719,0,0,0,0,0,0,0,0,0,0,0,0,0,-0.2539,-0.2541,-0.2645,-0.2646,-0.2647,-0.2699,-0.27,-0.2701,-0.2688,-0.2687,-0.2686,-0.2685,-0.2715,-0.2717,-0.2719,0,0,0,0,0,0,0,0,0,0,0,0,0,-0.2587,-0.2541,-0.2645,-0.2648,-0.2649,-0.2699,-0.27,-0.2701,-0.2688,-0.2687,-0.2686,-0.2685,-0.2715,-0.2717,-0.2719,-0.276,0,0,-0.2727,-0.2728,0,0,0,0,0,0,0,0,-0.2584,-0.259,-0.2647,-0.2648,-0.265,-0.2687,-0.2674,-0.272,-0.2689,-0.2672,-0.2685,-0.2684,-0.2706,-0.2709,-0.272,-0.2761,-0.2763,-0.2727,-0.2728,-0.2729,-0.273,0,0,0,0,0,0,0,-0.2581,-0.2588,-0.2665,-0.2648,-0.265,-0.265,-0.2655,-0.2682,-0.2693,-0.2673,-0.2673,-0.2682,-0.2706,-0.2718,-0.2721,-0.2763,-0.2727,-0.2729,-0.273,-0.2731,-0.2792,-0.2792,0,0,0,0,0,0,-0.2579,-0.2585,-0.2663,-0.2667,-0.2615,-0.2653,-0.2659,-0.2675,-0.2694,-0.2696,-0.2683,-0.2681,-0.2714,-0.2718,-0.2722,-0.2743,-0.2729,-0.2732,-0.2733,-0.2792,-0.2792,-0.2792,0,0,0,0,0,0,-0.2577,-0.2586,-0.2661,-0.2628,-0.2638,-0.2657,-0.2675,-0.2677,-0.2688,-0.2702,-0.2703,-0.2692,-0.2713,-0.2718,-0.2739,-0.2745,-0.2733,-0.2735,-0.2791,-0.2792,-0.2792,-0.2803,0,0,0,0,0,0,-0.2574,-0.2585,-0.2594,-0.2628,-0.264,-0.2687,-0.2676,-0.2679,-0.2697,-0.2695,-0.2711,-0.2712,-0.2713,-0.2735,-0.2741,-0.2748,-0.2737,-0.2791,-0.2791,-0.2792,-0.2803,-0.2804,-0.2805,0,0,0,0,0,-0.257,-0.2584,-0.2594,-0.2603,-0.2652,-0.2688,-0.2694,-0.2701,-0.2699,-0.2706,-0.2712,-0.2712,-0.2741,-0.2738,-0.2745,-0.2752,-0.2791,-0.2791,-0.2792,-0.2802,-0.2804,-0.2805,0,0,0,0,0,0,-0.2541,-0.2586,-0.2597,-0.2624,-0.2654,-0.2686,-0.2694,-0.2708,-0.2722,-0.2718,-0.2725,-0.2728,-0.2745,-0.275,-0.2747,-0.2768,-0.2762,-0.2764,-0.2768,-0.2769,-0.277,-0.2762,-0.2739,0,0,0,0,0,-0.2542,-0.2562,-0.2607,-0.2626,-0.2642,-0.2672,-0.2687,-0.27,-0.2719,-0.2724,-0.2737,-0.2745,-0.2755,-0.2762,-0.2773,-0.2797,-0.2781,-0.2802,-0.2803,-0.2804,-0.2801,-0.2783,-0.2782,-0.2793,-0.2793,-0.2793,0,0,-0.2534,-0.2563,-0.2573,-0.2621,-0.2642,-0.2672,-0.2677,-0.2705,-0.2724,-0.2727,-0.2749,-0.2755,-0.2762,-0.2777,-0.2785,-0.2782,-0.2791,-0.2804,-0.2805,-0.2801,-0.2784,-0.2782,-0.2781,-0.2793,-0.2793,-0.2793,0,0,-0.253,-0.2557,-0.2574,-0.2605,-0.2646,-0.267,-0.2681,-0.2721,-0.273,-0.2762,-0.2759,-0.2765,-0.2795,-0.2791,-0.2794,-0.2812,-0.2798,-0.2817,-0.2819,-0.2803,-0.2802,-0.28,-0.277,-0.2766,-0.2817,-0.2817,-0.2817,0,-0.2519,-0.2552,-0.2583,-0.2612,-0.2636,-0.267,-0.2697,-0.2719,-0.2759,-0.2769,-0.2766,-0.2791,-0.2797,-0.2805,-0.2805,-0.2814,-0.2799,-0.2815,-0.2804,-0.2802,-0.2801,-0.277,-0.2766,-0.2818,-0.2818,-0.2818,-0.2818,0,-0.2532,-0.2562,-0.2574,-0.2622,-0.2651,-0.268,-0.2722,-0.2746,-0.2764,-0.2784,-0.28,-0.2804,-0.2813,-0.2816,-0.2818,-0.2814,-0.2803,-0.2807,-0.2799,-0.28,-0.2768,-0.2763,-0.2819,-0.2819,-0.2818,-0.2818,0,0,-0.2495,-0.2569,-0.2572,-0.2597,-0.2661,-0.2684,-0.2722,-0.2762,-0.2781,-0.2804,-0.282,-0.2826,-0.2825,-0.2828,-0.2827,-0.2813,-0.2787,-0.2807,-0.2806,-0.2775,-0.2739,-0.2655,-0.2641,-0.2791,-0.279,-0.279,-0.2718,0,-0.2493,-0.2542,-0.2583,-0.2625,-0.2653,-0.2702,-0.2734,-0.2772,-0.28,-0.2825,-0.2825,-0.2839,-0.2831,-0.2835,-0.2819,-0.2808,-0.2776,-0.2805,-0.2745,-0.2743,-0.2666,-0.2633,-0.2455,-0.2369,-0.2713,-0.2712,-0.2712,0,-0.2487,-0.2524,-0.2564,-0.263,-0.2646,-0.2675,-0.2727,-0.2764,-0.2809,-0.2829,-0.2842,-0.2851,-0.2845,-0.2833,-0.279,-0.2812,-0.2769,-0.2747,-0.2743,-0.2656,-0.2648,-0.2426,-0.2347,-0.2703,-0.2704,-0.2704,-0.2705,0,-0.2432,-0.2505,-0.2533,-0.2558,-0.2639,-0.2659,-0.2699,-0.2755,-0.2781,-0.2828,-0.2844,-0.285,-0.2843,-0.281,-0.2767,-0.2781,-0.2707,-0.2721,-0.2594,-0.2588,-0.2418,-0.2397,-0.266,-0.266,-0.2661,-0.2661,-0.2661,0,-0.2408,-0.2428,-0.2509,-0.2524,-0.2552,-0.2625,-0.2656,-0.2701,-0.276,-0.278,-0.2832,-0.2832,-0.2836,-0.2803,-0.2764,-0.2656,-0.2698,-0.2576,-0.2557,-0.2416,-0.2397,-0.2679,-0.2682,-0.2658,-0.2659,-0.2659,-0.266,0,-0.2332,-0.2392,-0.2423,-0.2504,-0.2525,-0.2541,-0.262,-0.2641,-0.2715,-0.2741,-0.2754,-0.2807,-0.2765,-0.2744,-0.2685,-0.2629,-0.2554,-0.2497,-0.2324,-0.2286,-0.2448,-0.2452,-0.2353,-0.235,-0.2346,-0.2344,-0.2342,0,-0.2294,-0.2305,-0.238,-0.2391,-0.2422,-0.2466,-0.2491,-0.2591,-0.2621,-0.2708,-0.2706,-0.2705,-0.2653,-0.2549,-0.2462,-0.2354,-0.2441,-0.2133,-0.2122,-0.2421,-0.2413,-0.2423,-0.2432,-0.19,-0.1894,-0.1889,-0.1886,0,-0.2207,-0.2234,-0.2258,-0.2285,-0.2312,-0.2345,-0.2396,-0.2413,-0.2523,-0.2545,-0.255,-0.2519,-0.2442,-0.2254,-0.2141,-0.2064,-0.2147,-0.2035,-0.2372,-0.2014,-0.1989,-0.1984,-0.2008,-0.1844,-0.1849,-0.1852,-0.1854,-0.1855,-0.2118,-0.2112,-0.2141,-0.215,-0.2182,-0.2188,-0.2162,-0.2226,-0.2234,-0.2225,-0.2316,-0.2203,-0.2178,-0.1899,-0.1789,-0.1713,-0.1859,-0.178,-0.1795,-0.1816,-0.1785,-0.1756,-0.1562,-0.1564,-0.1566,-0.1568,-0.1569,0,-0.1993,-0.1997,-0.2002,-0.2006,-0.1977,-0.2045,-0.2061,-0.2003,-0.1946,-0.197,-0.1931,-0.171,-0.1578,-0.156,-0.1372,-0.133,-0.1332,-0.128,-0.1288,-0.1329,-0.1366,-0.1314,-0.0965,-0.0963,-0.0961,-0.0959,0,0,-0.1925,-0.1878,-0.1881,-0.1785,-0.1787,-0.1693,-0.1662,-0.1598,-0.1572,-0.1452,-0.1394,-0.1487,-0.1509,-0.124,-0.1175,-0.1039,-0.1174,-0.0984,-0.1469,-0.1519,-0.1554,-0.165,-0.1616,0,0,0,0,0]},{"header":{"parameterUnit":"m.s-1","parameterCategory":2,"la1":30.2991,"la2":30.254,"lo1":-89.0895,"lo2":-89.0444,"dy":0.0017,"dx":0.0017,"nx":28,"ny":28,"refTime":"2025-11-19T03:00:00:Z","depth":"2","parameterNumber":3,"parameterNumberName":"V-component_of_CURRENTS"},"data":[0,0,0,0,0,0,0,0,0,0,0,0,0,0,0,0,0,0,0,0,0,0,0,0,0,0,0,0,0,0,0,0,0,0,0,0,0,0,0,0,0,0,0,0,0,0,0,0,0,0,0,0,0,0,0,0,0,0,-0.0341,-0.034,0,-0.0257,-0.0256,-0.0255,-0.0186,-0.0186,-0.0185,-0.0185,-0.0055,-0.0052,-0.005,0,0,0,0,0,0,0,0,0,0,0,0,0,-0.0399,-0.0399,-0.0341,-0.034,-0.0339,-0.0257,-0.0256,-0.0254,-0.0187,-0.0186,-0.0185,-0.0184,-0.0056,-0.0053,-0.0049,0,0,0,0,0,0,0,0,0,0,0,0,0,-0.0349,-0.0398,-0.0341,-0.0296,-0.0291,-0.0257,-0.0255,-0.0254,-0.0187,-0.0186,-0.0185,-0.0184,-0.0057,-0.0053,-0.0049,-0.004,0,0,-0.0036,-0.0034,0,0,0,0,0,0,0,0,-0.0352,-0.0347,-0.0304,-0.0299,-0.0294,-0.0232,-0.0228,-0.018,-0.0187,-0.0225,-0.0185,-0.0184,-0.0112,-0.0103,-0.0088,-0.0034,-0.0028,-0.0035,-0.0033,-0.0031,-0.0029,0,0,0,0,0,0,0,-0.0356,-0.035,-0.0306,-0.0303,-0.0297,-0.0265,-0.0257,-0.0219,-0.0173,-0.0222,-0.0217,-0.021,-0.0108,-0.0092,-0.0084,-0.0026,-0.0035,-0.0031,-0.0029,-0.0027,0.0056,0.0056,0,0,0,0,0,0,-0.0372,-0.0354,-0.0309,-0.0304,-0.0323,-0.0265,-0.0256,-0.0252,-0.0174,-0.0162,-0.021,-0.0207,-0.01,-0.0089,-0.0079,-0.0053,-0.0031,-0.0027,-0.0024,0.0056,0.0056,0.0056,0,0,0,0,0,0,-0.0373,-0.0369,-0.0313,-0.0327,-0.0318,-0.0265,-0.0261,-0.0251,-0.0233,-0.0166,-0.0153,-0.0203,-0.0099,-0.0086,-0.005,-0.0048,-0.0025,-0.0021,0.0057,0.0056,0.0056,-0.0008,0,0,0,0,0,0,-0.0376,-0.037,-0.0375,-0.0329,-0.0318,-0.03,-0.0261,-0.025,-0.023,-0.0225,-0.0155,-0.0142,-0.0097,-0.0057,-0.0046,-0.0042,-0.0017,0.0057,0.0057,0.0056,-0.0005,-0.001,-0.0015,0,0,0,0,0,-0.0378,-0.0392,-0.0376,-0.037,-0.0326,-0.0301,-0.0293,-0.0251,-0.0231,-0.023,-0.0183,-0.0145,-0.0053,-0.0054,-0.004,-0.0035,0.0058,0.0057,0.0056,-0.0003,-0.0009,-0.0015,0,0,0,0,0,0,-0.0421,-0.0385,-0.0366,-0.0369,-0.034,-0.029,-0.0287,-0.0258,-0.0221,-0.0215,-0.015,-0.0134,-0.0103,-0.0065,-0.0067,-0.0015,0.0009,0.0011,-0.004,-0.0046,-0.0051,-0.0063,-0.0014,0,0,0,0,0,-0.0434,-0.0434,-0.0392,-0.0395,-0.0384,-0.0337,-0.0323,-0.0295,-0.0255,-0.0238,-0.019,-0.014,-0.0098,-0.007,-0.0031,-0.0002,0.0045,0.001,0.0005,0.0,-0.0001,0.0062,0.0063,0.0053,0.0053,0.0053,0,0,-0.0451,-0.0432,-0.0431,-0.0404,-0.0378,-0.0371,-0.0326,-0.0311,-0.0299,-0.023,-0.0204,-0.0159,-0.0097,-0.0064,-0.0046,-0.003,0.0028,-0.0001,-0.0005,-0.0004,0.0062,0.0063,0.0064,0.0052,0.0052,0.0052,0,0,-0.0488,-0.0469,-0.0481,-0.0463,-0.0433,-0.0402,-0.0401,-0.0356,-0.0329,-0.0302,-0.0249,-0.0203,-0.0145,-0.0093,-0.006,-0.0069,-0.0006,-0.006,-0.0084,-0.0023,-0.0021,-0.0019,0.0042,0.005,-0.0055,-0.0055,-0.0055,0,-0.051,-0.0518,-0.0481,-0.0488,-0.0478,-0.0421,-0.0429,-0.0396,-0.0344,-0.0321,-0.0304,-0.0205,-0.0154,-0.0097,-0.0101,-0.0078,-0.0037,-0.0067,-0.0029,-0.0026,-0.0023,0.0039,0.0049,-0.0059,-0.0058,-0.0058,-0.0058,0,-0.0553,-0.0558,-0.0565,-0.0552,-0.0537,-0.0536,-0.0487,-0.0465,-0.0427,-0.0384,-0.0329,-0.0258,-0.0194,-0.0173,-0.0138,-0.0091,-0.0067,-0.0048,-0.0015,-0.0025,0.0041,0.0052,-0.0063,-0.0062,-0.0061,-0.006,0,0,-0.0601,-0.0598,-0.0599,-0.0605,-0.0571,-0.0564,-0.0543,-0.0502,-0.0482,-0.0422,-0.0385,-0.0309,-0.0261,-0.0221,-0.0164,-0.0111,-0.0052,-0.0078,-0.0073,-0.0019,0.0083,0.011,0.0125,-0.0029,-0.0028,-0.0027,0.012,0,-0.0644,-0.0681,-0.0657,-0.0679,-0.0692,-0.0636,-0.0622,-0.0575,-0.052,-0.047,-0.0378,-0.0327,-0.028,-0.025,-0.0187,-0.0087,-0.0027,-0.0094,0.0087,0.0092,0.0116,0.0138,0.0103,0.0232,0.0132,0.0134,0.0135,0,-0.069,-0.071,-0.0748,-0.0745,-0.0743,-0.0742,-0.0701,-0.0678,-0.0589,-0.0544,-0.0464,-0.0391,-0.0292,-0.0261,-0.0084,-0.0131,-0.0034,0.0044,0.0052,0.0107,0.014,0.0227,0.0257,0.0154,0.0153,0.0151,0.015,0,-0.0749,-0.0767,-0.0803,-0.0804,-0.0791,-0.079,-0.0773,-0.0704,-0.068,-0.0587,-0.0553,-0.0424,-0.0353,-0.0222,-0.0053,-0.0069,0.0141,0.0147,0.0267,0.0271,0.0293,0.0296,0.0268,0.0268,0.0267,0.0267,0.0267,0,-0.0805,-0.0829,-0.0837,-0.0858,-0.089,-0.0853,-0.0857,-0.0816,-0.0749,-0.0714,-0.0598,-0.0532,-0.0343,-0.0196,-0.0056,0.0149,0.015,0.0272,0.0314,0.027,0.0268,0.0238,0.0233,0.0273,0.0271,0.027,0.0269,0,-0.0862,-0.0867,-0.0909,-0.0918,-0.0923,-0.0945,-0.0929,-0.0922,-0.0851,-0.0799,-0.0773,-0.06,-0.0403,-0.0203,0.0033,0.0152,0.0336,0.0406,0.0342,0.0373,0.0424,0.0413,0.0554,0.0556,0.0558,0.056,0.0561,0,-0.0893,-0.0925,-0.0966,-0.0998,-0.1006,-0.1029,-0.1041,-0.0985,-0.0966,-0.0832,-0.0807,-0.0609,-0.0447,-0.0086,0.0152,0.0417,0.0411,0.0527,0.0491,0.0429,0.0455,0.0442,0.0429,0.0502,0.0502,0.0503,0.0503,0,-0.0952,-0.0966,-0.1002,-0.1077,-0.1109,-0.1137,-0.1141,-0.1143,-0.1056,-0.0979,-0.0833,-0.0692,-0.0343,-0.005,0.0281,0.0426,0.0478,0.0547,0.0524,0.0423,0.0388,0.0411,0.0399,0.0509,0.0508,0.0508,0.0508,0.0507,-0.0984,-0.103,-0.1082,-0.1146,-0.1189,-0.1226,-0.1235,-0.1201,-0.1147,-0.0999,-0.0864,-0.0607,-0.0345,0.0141,0.0362,0.057,0.0565,0.0611,0.0606,0.0601,0.0557,0.0526,0.0665,0.0666,0.0666,0.0666,0.0666,0,-0.1023,-0.1075,-0.1146,-0.1217,-0.127,-0.1275,-0.1282,-0.1243,-0.1159,-0.0987,-0.0804,-0.0475,-0.015,0.0131,0.046,0.0643,0.0619,0.0671,0.0597,0.0591,0.0586,0.0537,0.0643,0.0643,0.0644,0.0644,0,0,-0.1044,-0.112,-0.116,-0.1259,-0.1308,-0.1338,-0.1333,-0.1236,-0.1101,-0.0902,-0.0697,-0.0453,-0.0121,0.0102,0.0328,0.0498,0.0496,0.0514,0.0514,0.0393,0.0386,0.0534,0.0451,0,0,0,0,0]}],[{"header":{"parameterUnit":"m.s-1","parameterCategory":2,"la1":30.2991,"la2":30.254,"lo1":-89.0895,"lo2":-89.0444,"dy":0.0017,"dx":0.0017,"nx":28,"ny":28,"refTime":"2025-11-19T03:00:00:Z","depth":"4","parameterNumber":2,"parameterNumberName":"U-component_of_CURRENTS"},"data":[0,0,0,0,0,0,0,0,0,0,0,0,0,0,0,0,0,0,0,0,0,0,0,0,0,0,0,0,0,0,0,0,0,0,0,0,0,0,0,0,0,0,0,0,0,0,0,0,0,0,0,0,0,0,0,0,0,0,-0.1852,-0.1853,0,-0.194,-0.1941,-0.1941,-0.1994,-0.1994,-0.1995,-0.1995,-0.2097,-0.2099,-0.2101,0,0,0,0,0,0,0,0,0,0,0,0,0,-0.1732,-0.1734,-0.1852,-0.1853,-0.1854,-0.1939,-0.1941,-0.1942,-0.1994,-0.1994,-0.1995,-0.1995,-0.2096,-0.2099,-0.2102,0,0,0,0,0,0,0,0,0,0,0,0,0,-0.1797,-0.1735,-0.1852,-0.1892,-0.1896,-0.1939,-0.1941,-0.1942,-0.1994,-0.1994,-0.1995,-0.1995,-0.2095,-0.2099,-0.2102,-0.2113,0,0,-0.2113,-0.2114,0,0,0,0,0,0,0,0,-0.1793,-0.1801,-0.1885,-0.1889,-0.1894,-0.1958,-0.1936,-0.2,-0.1994,-0.1955,-0.1995,-0.1996,-0.2052,-0.2059,-0.2072,-0.2118,-0.2122,-0.2113,-0.2115,-0.2117,-0.2118,0,0,0,0,0,0,0,-0.1789,-0.1798,-0.1885,-0.1886,-0.1892,-0.1906,-0.1916,-0.1948,-0.1999,-0.1959,-0.1963,-0.1975,-0.2055,-0.2069,-0.2075,-0.2123,-0.2113,-0.2116,-0.2118,-0.212,-0.2232,-0.2233,0,0,0,0,0,0,-0.178,-0.1794,-0.1883,-0.1888,-0.1846,-0.1908,-0.1919,-0.1936,-0.1998,-0.2009,-0.1974,-0.1977,-0.2062,-0.2071,-0.2079,-0.2153,-0.2117,-0.212,-0.2122,-0.2231,-0.2232,-0.2233,0,0,0,0,0,0,-0.1777,-0.1788,-0.1879,-0.1843,-0.1856,-0.191,-0.1928,-0.1937,-0.1984,-0.201,-0.2021,-0.2016,-0.2063,-0.2074,-0.213,-0.2155,-0.2122,-0.2125,-0.223,-0.2232,-0.2233,-0.2264,0,0,0,0,0,0,-0.1774,-0.1786,-0.181,-0.1843,-0.1858,-0.1921,-0.1928,-0.1938,-0.1989,-0.1994,-0.2048,-0.2056,-0.2064,-0.2125,-0.2134,-0.2159,-0.2128,-0.2229,-0.2231,-0.2233,-0.2262,-0.2266,-0.227,0,0,0,0,0,-0.1769,-0.1792,-0.1811,-0.1823,-0.1885,-0.1922,-0.1931,-0.1969,-0.1991,-0.2014,-0.2051,-0.2057,-0.2141,-0.2129,-0.2139,-0.2166,-0.2229,-0.2231,-0.2232,-0.226,-0.2265,-0.2269,0,0,0,0,0,0,-0.1755,-0.1801,-0.1822,-0.186,-0.1897,-0.1932,-0.1961,-0.1989,-0.2037,-0.2053,-0.2075,-0.2086,-0.2141,-0.215,-0.2137,-0.2201,-0.2183,-0.2187,-0.22,-0.2205,-0.2209,-0.2198,-0.2131,0,0,0,0,0,-0.1762,-0.1793,-0.1835,-0.1869,-0.189,-0.1933,-0.1961,-0.1989,-0.2028,-0.2052,-0.209,-0.2125,-0.2151,-0.2178,-0.2202,-0.2248,-0.2229,-0.2268,-0.2272,-0.2275,-0.2272,-0.2263,-0.2266,-0.224,-0.224,-0.224,0,0,-0.1767,-0.1796,-0.1816,-0.1869,-0.1902,-0.1938,-0.1952,-0.2002,-0.2038,-0.2055,-0.2125,-0.2146,-0.2166,-0.2209,-0.2234,-0.2226,-0.2272,-0.2278,-0.2281,-0.2276,-0.2265,-0.2268,-0.227,-0.2241,-0.2241,-0.2241,0,0,-0.1777,-0.1819,-0.1846,-0.188,-0.1937,-0.1962,-0.1984,-0.204,-0.2074,-0.2136,-0.2149,-0.2184,-0.2245,-0.2252,-0.2263,-0.2306,-0.2292,-0.2322,-0.234,-0.2332,-0.2333,-0.2334,-0.2308,-0.2307,-0.2326,-0.2326,-0.2326,0,-0.1784,-0.1824,-0.186,-0.1894,-0.1928,-0.1977,-0.2014,-0.2052,-0.2122,-0.2149,-0.2164,-0.2236,-0.2257,-0.2289,-0.2302,-0.2315,-0.2303,-0.2321,-0.2335,-0.2336,-0.2337,-0.231,-0.2308,-0.2328,-0.2328,-0.2327,-0.2327,0,-0.1805,-0.1852,-0.1872,-0.1931,-0.197,-0.2012,-0.2064,-0.2114,-0.2163,-0.2195,-0.2254,-0.2278,-0.2315,-0.2328,-0.2333,-0.2353,-0.234,-0.2339,-0.232,-0.2341,-0.2312,-0.2309,-0.233,-0.233,-0.2329,-0.2329,0,0,-0.1779,-0.1869,-0.1881,-0.1918,-0.1996,-0.2026,-0.2091,-0.215,-0.2192,-0.2252,-0.2296,-0.2336,-0.2352,-0.2363,-0.2373,-0.2369,-0.2364,-0.2363,-0.2362,-0.2332,-0.2336,-0.2188,-0.2171,-0.2371,-0.2371,-0.2371,-0.231,0,-0.1788,-0.1853,-0.19,-0.1969,-0.2006,-0.2071,-0.2123,-0.2185,-0.2238,-0.2293,-0.2318,-0.2364,-0.2364,-0.2387,-0.2385,-0.2377,-0.2361,-0.238,-0.2325,-0.2323,-0.2184,-0.2164,-0.237,-0.2308,-0.2308,-0.2307,-0.2307,0,-0.1785,-0.1834,-0.1901,-0.1991,-0.2014,-0.2065,-0.2152,-0.2206,-0.2281,-0.2322,-0.2365,-0.2391,-0.241,-0.2404,-0.2383,-0.24,-0.2368,-0.2349,-0.2346,-0.2193,-0.2169,-0.2285,-0.2302,-0.2302,-0.2303,-0.2303,-0.2303,0,-0.1731,-0.183,-0.1886,-0.1919,-0.2026,-0.2073,-0.2133,-0.2217,-0.2259,-0.2341,-0.2371,-0.2406,-0.242,-0.2401,-0.2368,-0.2384,-0.2324,-0.2337,-0.2166,-0.2156,-0.2296,-0.2296,-0.23,-0.23,-0.23,-0.23,-0.23,0,-0.1702,-0.1751,-0.1873,-0.1902,-0.1967,-0.2055,-0.2125,-0.2188,-0.2271,-0.2299,-0.2379,-0.2383,-0.2421,-0.2397,-0.2367,-0.2242,-0.2318,-0.2149,-0.2123,-0.231,-0.2312,-0.2294,-0.2294,-0.2298,-0.2298,-0.2299,-0.2299,0,-0.1625,-0.171,-0.1778,-0.1902,-0.1943,-0.199,-0.2108,-0.2143,-0.224,-0.2278,-0.2302,-0.2365,-0.2327,-0.2328,-0.2286,-0.221,-0.2129,-0.2064,-0.2248,-0.2237,-0.197,-0.1973,-0.1866,-0.186,-0.1855,-0.1851,-0.1848,0,-0.1585,-0.1616,-0.1755,-0.1791,-0.1852,-0.1939,-0.1986,-0.2108,-0.2136,-0.2233,-0.2224,-0.2241,-0.2256,-0.206,-0.2098,-0.2007,-0.1983,-0.1932,-0.196,-0.1936,-0.1923,-0.1933,-0.1943,-0.184,-0.1839,-0.1837,-0.1836,0,-0.1499,-0.1566,-0.162,-0.1696,-0.176,-0.1816,-0.1894,-0.1896,-0.2014,-0.2127,-0.2068,-0.2034,-0.1982,-0.1941,-0.1875,-0.1821,-0.1966,-0.188,-0.1891,-0.1916,-0.1903,-0.1897,-0.1912,-0.1819,-0.1821,-0.1823,-0.1824,0,-0.1429,-0.1445,-0.1523,-0.1568,-0.1645,-0.1652,-0.1718,-0.1734,-0.1775,-0.189,-0.1862,-0.1884,-0.195,-0.1841,-0.1787,-0.1715,-0.1695,-0.1643,-0.1666,-0.1686,-0.1655,-0.1614,-0.1395,0,0,0,0,0,-0.1348,-0.1345,-0.1383,-0.1424,-0.1493,-0.1529,-0.163,-0.1698,-0.1815,-0.1716,-0.1782,-0.1725,-0.1646,-0.1667,-0.155,-0.1711,-0.1707,-0.157,-0.1662,-0.1722,-0.1743,-0.1724,0,0,0,0,0,0,-0.1291,-0.1324,-0.1332,-0.1284,-0.1281,-0.1333,-0.1385,-0.1472,-0.1429,-0.1554,-0.1511,-0.1612,-0.1554,-0.1667,-0.1508,-0.1513,-0.1533,-0.1602,-0.1597,-0.1711,-0.1729,-0.1745,-0.1733,0,0,0,0,0]},{"header":{"parameterUnit":"m.s-1","parameterCategory":2,"la1":30.2991,"la2":30.254,"lo1":-89.0895,"lo2":-89.0444,"dy":0.0017,"dx":0.0017,"nx":28,"ny":28,"refTime":"2025-11-19T03:00:00:Z","depth":"4","parameterNumber":3,"parameterNumberName":"V-component_of_CURRENTS"},"data":[0,0,0,0,0,0,0,0,0,0,0,0,0,0,0,0,0,0,0,0,0,0,0,0,0,0,0,0,0,0,0,0,0,0,0,0,0,0,0,0,0,0,0,0,0,0,0,0,0,0,0,0,0,0,0,0,0,0,-0.0269,-0.0268,0,-0.0217,-0.0217,-0.0216,-0.0171,-0.0171,-0.017,-0.017,-0.0081,-0.0079,-0.0077,0,0,0,0,0,0,0,0,0,0,0,0,0,-0.0296,-0.0296,-0.0269,-0.0268,-0.0268,-0.0217,-0.0217,-0.0216,-0.0171,-0.0171,-0.017,-0.017,-0.0081,-0.0079,-0.0077,0,0,0,0,0,0,0,0,0,0,0,0,0,-0.0268,-0.0296,-0.0269,-0.024,-0.0237,-0.0218,-0.0217,-0.0216,-0.0171,-0.0171,-0.017,-0.017,-0.0082,-0.0079,-0.0076,-0.007,0,0,-0.0067,-0.0066,0,0,0,0,0,0,0,0,-0.0269,-0.0267,-0.0245,-0.0242,-0.0239,-0.0201,-0.0193,-0.0165,-0.0172,-0.0195,-0.017,-0.0169,-0.0118,-0.0112,-0.0103,-0.0066,-0.0062,-0.0067,-0.0065,-0.0064,-0.0063,0,0,0,0,0,0,0,-0.0271,-0.0268,-0.0247,-0.0244,-0.0241,-0.0219,-0.0214,-0.0188,-0.016,-0.0193,-0.019,-0.0186,-0.0116,-0.0106,-0.0101,-0.0061,-0.0067,-0.0064,-0.0062,-0.0061,-0.0006,-0.0006,0,0,0,0,0,0,-0.0282,-0.027,-0.0249,-0.0246,-0.0254,-0.0219,-0.0214,-0.0213,-0.0161,-0.0153,-0.0187,-0.0184,-0.0112,-0.0104,-0.0097,-0.0079,-0.0064,-0.0061,-0.0059,-0.0006,-0.0006,-0.0007,0,0,0,0,0,0,-0.0283,-0.0281,-0.0251,-0.0257,-0.0252,-0.022,-0.0219,-0.0212,-0.0203,-0.0156,-0.0147,-0.0185,-0.0111,-0.0102,-0.0079,-0.0075,-0.006,-0.0057,-0.0005,-0.0006,-0.0006,-0.0047,0,0,0,0,0,0,-0.0284,-0.0282,-0.0289,-0.0258,-0.0252,-0.0246,-0.0219,-0.0212,-0.0202,-0.0199,-0.0152,-0.0142,-0.011,-0.0084,-0.0076,-0.0071,-0.0055,-0.0005,-0.0006,-0.0006,-0.0045,-0.0049,-0.0052,0,0,0,0,0,-0.0285,-0.0299,-0.0289,-0.0287,-0.0262,-0.0247,-0.0242,-0.0215,-0.0203,-0.0204,-0.0173,-0.0144,-0.0082,-0.0082,-0.0073,-0.0066,-0.0005,-0.0005,-0.0006,-0.0044,-0.0048,-0.0052,0,0,0,0,0,0,-0.0315,-0.0294,-0.0284,-0.029,-0.0273,-0.024,-0.0241,-0.0222,-0.0199,-0.0196,-0.015,-0.0139,-0.0118,-0.0091,-0.0092,-0.0054,-0.0038,-0.0037,-0.007,-0.0073,-0.0076,-0.0084,-0.0052,0,0,0,0,0,-0.0326,-0.033,-0.0304,-0.0311,-0.0305,-0.0275,-0.0267,-0.0249,-0.0223,-0.0213,-0.018,-0.0145,-0.0114,-0.0094,-0.0068,-0.0047,-0.0011,-0.0037,-0.004,-0.0043,-0.0044,0.0012,0.0015,-0.0009,-0.0009,-0.0009,0,0,-0.0339,-0.0329,-0.0331,-0.0317,-0.0302,-0.0299,-0.0269,-0.0262,-0.0255,-0.0207,-0.0191,-0.016,-0.0114,-0.0091,-0.0078,-0.0066,-0.0019,-0.0044,-0.0047,-0.0046,0.0012,0.0014,0.0017,-0.0009,-0.0009,-0.0009,0,0,-0.0367,-0.036,-0.0371,-0.0361,-0.0345,-0.0325,-0.0326,-0.0297,-0.028,-0.0264,-0.0225,-0.019,-0.0152,-0.0109,-0.0084,-0.009,-0.0044,-0.0087,-0.01,-0.0045,-0.0043,-0.004,0.0004,0.0011,-0.0082,-0.0082,-0.0082,0,-0.0385,-0.0394,-0.0373,-0.038,-0.0376,-0.034,-0.0348,-0.0325,-0.0292,-0.0276,-0.0267,-0.0195,-0.0156,-0.0108,-0.0111,-0.0095,-0.0065,-0.0088,-0.0049,-0.0045,-0.0041,0.0003,0.0011,-0.0084,-0.0083,-0.0083,-0.0083,0,-0.0416,-0.0425,-0.0432,-0.0427,-0.042,-0.0423,-0.039,-0.0377,-0.0354,-0.0323,-0.0282,-0.0228,-0.0181,-0.0163,-0.0138,-0.0093,-0.0081,-0.0064,-0.0038,-0.0041,0.0005,0.0014,-0.0087,-0.0086,-0.0085,-0.0085,0,0,-0.0447,-0.0454,-0.0457,-0.0465,-0.0446,-0.0445,-0.0431,-0.0403,-0.0391,-0.0348,-0.0322,-0.0259,-0.0224,-0.0194,-0.0149,-0.01,-0.0048,-0.0078,-0.0074,-0.0034,0.0064,0.0041,0.0049,-0.0026,-0.0024,-0.0023,0.0084,0,-0.0478,-0.051,-0.0497,-0.052,-0.0532,-0.0497,-0.049,-0.0458,-0.0421,-0.0387,-0.0312,-0.0276,-0.0236,-0.0215,-0.0157,-0.0079,-0.0025,-0.0079,0.006,0.0064,0.0046,0.0059,-0.0018,0.0091,0.0094,0.0095,0.0096,0,-0.0508,-0.0527,-0.0563,-0.057,-0.0572,-0.0579,-0.0557,-0.0543,-0.0477,-0.0447,-0.0384,-0.0328,-0.0244,-0.0217,-0.0069,-0.0109,-0.0029,0.0035,0.0041,0.004,0.0059,0.0098,0.0114,0.0113,0.0111,0.011,0.0109,0,-0.0544,-0.0568,-0.0602,-0.0606,-0.0609,-0.0616,-0.0611,-0.0566,-0.0553,-0.0484,-0.0463,-0.0354,-0.0301,-0.0186,-0.0053,-0.006,0.0104,0.0118,0.0178,0.0177,0.0185,0.0181,0.0225,0.0225,0.0225,0.0225,0.0224,0,-0.0575,-0.0602,-0.0629,-0.0649,-0.0687,-0.0667,-0.0685,-0.0658,-0.0616,-0.0596,-0.0501,-0.0455,-0.0293,-0.0178,-0.0059,0.0085,0.0109,0.0178,0.0206,0.0163,0.0156,0.0191,0.0186,0.0229,0.0228,0.0227,0.0226,0,-0.0605,-0.0622,-0.0667,-0.0695,-0.0709,-0.0737,-0.075,-0.0752,-0.0706,-0.0675,-0.0657,-0.0523,-0.0372,-0.0208,-0.0012,0.0071,0.0214,0.0262,0.0198,0.022,0.0252,0.0243,0.0338,0.0338,0.0338,0.0338,0.0339,0,-0.0619,-0.0649,-0.0713,-0.0751,-0.0771,-0.0809,-0.0832,-0.0805,-0.0797,-0.0712,-0.0693,-0.055,-0.0445,-0.0177,-0.0016,0.021,0.0239,0.0304,0.0283,0.0247,0.0265,0.0256,0.0248,0.0339,0.0339,0.0339,0.0339,0,-0.0647,-0.0678,-0.0716,-0.0803,-0.085,-0.0891,-0.0915,-0.0915,-0.0864,-0.0829,-0.0703,-0.0555,-0.0384,-0.0177,-0.0003,0.0157,0.0254,0.0306,0.0307,0.0288,0.0249,0.0265,0.0256,0.0339,0.0339,0.0339,0.0339,0,-0.0665,-0.0706,-0.0769,-0.0836,-0.0905,-0.0945,-0.0956,-0.0926,-0.0903,-0.0796,-0.0756,-0.0558,-0.0436,-0.0204,-0.0044,0.0108,0.0144,0.0181,0.0189,0.0191,0.0108,0.0035,0.0087,0,0,0,0,0,-0.0675,-0.0724,-0.0796,-0.0869,-0.0938,-0.097,-0.0994,-0.0986,-0.0942,-0.0856,-0.0798,-0.063,-0.0371,-0.0255,-0.0104,-0.0063,0.0148,0.0114,0.019,0.0341,0.0341,0.0266,0,0,0,0,0,0,-0.0684,-0.0755,-0.0794,-0.0877,-0.0929,-0.0992,-0.1007,-0.098,-0.0916,-0.0849,-0.0703,-0.0611,-0.0356,-0.0451,-0.0103,-0.0058,0.0005,0.0244,0.0246,0.0342,0.0341,0.0341,0.0264,0,0,0,0,0]}]]